DLH24B EDDF-LMML

Flight info

Callsign DLH24B
Flight time 2h 11m
Altitude 37000
Route ANEKI2L/18 ANEKI Y163 NATOR DCT TRA DCT RIPUS DCT GERSA DCT SOSON DCT ODINA DCT BETEN DCT RONAB DCT MARON DCT EKOLA L12 GZO
Aircraft A320/M-SDE2E3FGIJ1LORWXYZ/HB1

Departure

Time 2026-04-14 14:03
Airport Frankfurt Main Airport (EDDF)

Arrival

Time 2026-04-14 16:15
Airport Malta International Airport (LMML)
Time Latitude Longitude Altitude Speed Heading
2026-04-14 13:21 50.04726 8.58100 362 ft 0 kts 160°
2026-04-14 13:28 50.04718 8.58123 362 ft 0 kts 159°
2026-04-14 13:51 50.04724 8.58120 362 ft 4 kts 159°
2026-04-14 13:52 50.04749 8.58105 363 ft 4 kts 159°
2026-04-14 13:52 50.04774 8.58091 366 ft 4 kts 163°
2026-04-14 13:52 50.04799 8.58087 363 ft 4 kts 201°
2026-04-14 13:52 50.04816 8.58109 365 ft 2 kts 249°
2026-04-14 13:53 50.04821 8.58130 362 ft 0 kts 249°
2026-04-14 13:55 50.04814 8.58101 362 ft 8 kts 249°
2026-04-14 13:55 50.04783 8.58000 360 ft 10 kts 230°
2026-04-14 13:55 50.04734 8.57930 361 ft 10 kts 222°
2026-04-14 13:55 50.04688 8.57815 360 ft 13 kts 250°
2026-04-14 13:56 50.04657 8.57688 361 ft 12 kts 249°
2026-04-14 13:56 50.04630 8.57576 362 ft 10 kts 249°
2026-04-14 13:56 50.04607 8.57480 360 ft 9 kts 250°
2026-04-14 13:56 50.04583 8.57376 363 ft 13 kts 250°
2026-04-14 13:57 50.04545 8.57207 358 ft 19 kts 250°
2026-04-14 13:57 50.04495 8.57011 360 ft 20 kts 250°
2026-04-14 13:57 50.04446 8.56802 361 ft 21 kts 249°
2026-04-14 13:57 50.04394 8.56582 359 ft 23 kts 249°
2026-04-14 13:58 50.04335 8.56337 362 ft 25 kts 250°
2026-04-14 13:58 50.04272 8.56070 359 ft 27 kts 248°
2026-04-14 13:58 50.04216 8.55838 355 ft 24 kts 250°
2026-04-14 13:58 50.04156 8.55587 357 ft 25 kts 249°
2026-04-14 13:59 50.04104 8.55368 356 ft 18 kts 249°
2026-04-14 13:59 50.04066 8.55211 357 ft 14 kts 249°
2026-04-14 13:59 50.04030 8.55064 357 ft 15 kts 249°
2026-04-14 13:59 50.03994 8.54912 357 ft 16 kts 250°
2026-04-14 14:00 50.03951 8.54732 357 ft 20 kts 250°
2026-04-14 14:00 50.03898 8.54512 350 ft 23 kts 250°
2026-04-14 14:00 50.03820 8.54282 350 ft 25 kts 237°
2026-04-14 14:00 50.03753 8.54024 349 ft 27 kts 249°
2026-04-14 14:01 50.03687 8.53746 346 ft 28 kts 250°
2026-04-14 14:01 50.03626 8.53510 340 ft 18 kts 249°
2026-04-14 14:01 50.03581 8.53318 340 ft 20 kts 250°
2026-04-14 14:01 50.03536 8.53131 338 ft 17 kts 249°
2026-04-14 14:02 50.03496 8.52968 337 ft 15 kts 250°
2026-04-14 14:02 50.03459 8.52833 335 ft 13 kts 245°
2026-04-14 14:02 50.03425 8.52709 333 ft 12 kts 249°
2026-04-14 14:02 50.03379 8.52611 332 ft 14 kts 207°
2026-04-14 14:03 50.03125 8.52597 335 ft 72 kts 179°
2026-04-14 14:03 50.02395 8.52606 335 ft 135 kts 180°
2026-04-14 14:03 50.01286 8.52615 449 ft 171 kts 179°
2026-04-14 14:03 50.00125 8.52633 1162 ft 168 kts 179°
2026-04-14 14:04 49.98943 8.52699 1804 ft 173 kts 177°
2026-04-14 14:04 49.97664 8.52791 2123 ft 195 kts 176°
2026-04-14 14:04 49.96227 8.52899 2382 ft 219 kts 177°
2026-04-14 14:04 49.94639 8.53017 2851 ft 235 kts 176°
2026-04-14 14:05 49.92987 8.53136 3643 ft 239 kts 177°
2026-04-14 14:05 49.91316 8.53251 4465 ft 242 kts 177°
2026-04-14 14:05 49.89647 8.53362 5294 ft 244 kts 177°
2026-04-14 14:05 49.87938 8.53478 6091 ft 248 kts 176°
2026-04-14 14:06 49.86180 8.53600 6863 ft 251 kts 176°
2026-04-14 14:06 49.84452 8.53720 7633 ft 253 kts 176°
2026-04-14 14:06 49.82688 8.53837 8422 ft 255 kts 177°
2026-04-14 14:06 49.80922 8.53958 9330 ft 253 kts 178°
2026-04-14 14:07 49.79168 8.54077 10237 ft 251 kts 178°
2026-04-14 14:07 49.77415 8.54070 10932 ft 257 kts 186°
2026-04-14 14:07 49.75552 8.53836 11193 ft 280 kts 186°
2026-04-14 14:07 49.73528 8.53561 11419 ft 303 kts 186°
2026-04-14 14:08 49.71344 8.53256 11615 ft 327 kts 186°
2026-04-14 14:08 49.69006 8.52934 11826 ft 347 kts 186°
2026-04-14 14:08 49.66566 8.52606 12378 ft 355 kts 186°
2026-04-14 14:08 49.64087 8.52278 13042 ft 360 kts 186°
2026-04-14 14:09 49.61577 8.51949 13696 ft 364 kts 186°
2026-04-14 14:09 49.59038 8.51616 14320 ft 368 kts 186°
2026-04-14 14:09 49.56472 8.51279 14923 ft 372 kts 186°
2026-04-14 14:09 49.53884 8.50937 15529 ft 375 kts 186°
2026-04-14 14:10 49.51275 8.50595 16122 ft 378 kts 186°
2026-04-14 14:10 49.48642 8.50252 16718 ft 382 kts 186°
2026-04-14 14:10 49.45981 8.49907 17307 ft 385 kts 186°
2026-04-14 14:10 49.43299 8.49558 17898 ft 389 kts 186°
2026-04-14 14:11 49.40592 8.49205 18487 ft 392 kts 186°
2026-04-14 14:11 49.37868 8.48846 19014 ft 395 kts 186°
2026-04-14 14:11 49.35121 8.48482 19535 ft 397 kts 186°
2026-04-14 14:11 49.32355 8.48118 20062 ft 400 kts 186°
2026-04-14 14:12 49.29576 8.47755 20576 ft 403 kts 186°
2026-04-14 14:12 49.26780 8.47392 21073 ft 405 kts 186°
2026-04-14 14:12 49.23960 8.47032 21566 ft 407 kts 186°
2026-04-14 14:12 49.21122 8.46666 22042 ft 410 kts 186°
2026-04-14 14:13 49.18278 8.46297 22572 ft 411 kts 186°
2026-04-14 14:13 49.15420 8.45922 23065 ft 412 kts 186°
2026-04-14 14:13 49.12562 8.45548 23529 ft 414 kts 186°
2026-04-14 14:13 49.09679 8.45176 23930 ft 416 kts 186°
2026-04-14 14:14 49.06788 8.44777 24274 ft 418 kts 189°
2026-04-14 14:14 49.04894 8.44256 24486 ft 419 kts 194°
2026-04-14 14:14 49.01172 8.42949 24902 ft 423 kts 194°
2026-04-14 14:14 48.98296 8.41938 25224 ft 426 kts 194°
2026-04-14 14:15 48.95400 8.40925 25528 ft 429 kts 194°
2026-04-14 14:15 48.92484 8.39908 25824 ft 432 kts 194°
2026-04-14 14:15 48.89545 8.38885 26133 ft 434 kts 194°
2026-04-14 14:15 48.86583 8.37855 26428 ft 437 kts 194°
2026-04-14 14:16 48.83607 8.36822 26715 ft 440 kts 194°
2026-04-14 14:16 48.80620 8.35792 26989 ft 443 kts 194°
2026-04-14 14:16 48.77643 8.34764 27257 ft 444 kts 194°
2026-04-14 14:17 48.71591 8.32591 27761 ft 449 kts 194°
2026-04-14 14:17 48.68579 8.31488 27997 ft 452 kts 195°
2026-04-14 14:17 48.65488 8.30345 28237 ft 454 kts 195°
2026-04-14 14:17 48.62426 8.29207 28472 ft 456 kts 195°
2026-04-14 14:18 48.60320 8.28429 28624 ft 458 kts 194°
2026-04-14 14:18 48.56208 8.26928 28916 ft 461 kts 194°
2026-04-14 14:18 48.53091 8.25803 29182 ft 462 kts 193°
2026-04-14 14:18 48.50951 8.25218 29384 ft 462 kts 188°
2026-04-14 14:19 48.47778 8.24965 29689 ft 463 kts 179°
2026-04-14 14:19 48.44525 8.25452 29989 ft 464 kts 171°
2026-04-14 14:19 48.41385 8.26245 30279 ft 465 kts 171°
2026-04-14 14:19 48.38192 8.27031 30548 ft 465 kts 171°
2026-04-14 14:20 48.34955 8.27813 30815 ft 465 kts 171°
2026-04-14 14:20 48.31770 8.28579 31091 ft 464 kts 171°
2026-04-14 14:20 48.28585 8.29337 31361 ft 464 kts 171°
2026-04-14 14:20 48.25436 8.30089 31624 ft 464 kts 171°
2026-04-14 14:21 48.22244 8.30855 31892 ft 464 kts 171°
2026-04-14 14:21 48.19059 8.31619 32155 ft 464 kts 171°
2026-04-14 14:21 48.15872 8.32383 32415 ft 464 kts 171°
2026-04-14 14:21 48.12688 8.33154 32677 ft 464 kts 171°
2026-04-14 14:22 48.09495 8.33934 32937 ft 465 kts 171°
2026-04-14 14:22 48.06302 8.34714 33210 ft 465 kts 171°
2026-04-14 14:22 48.03114 8.35489 33477 ft 465 kts 171°
2026-04-14 14:22 47.99926 8.36262 33742 ft 465 kts 171°
2026-04-14 14:23 47.96751 8.37030 34009 ft 465 kts 171°
2026-04-14 14:23 47.93540 8.37801 34254 ft 465 kts 171°
2026-04-14 14:23 47.90345 8.38566 34469 ft 465 kts 171°
2026-04-14 14:23 47.87175 8.39328 34704 ft 465 kts 171°
2026-04-14 14:24 47.84004 8.40088 34915 ft 465 kts 171°
2026-04-14 14:24 47.80811 8.40851 35114 ft 465 kts 171°
2026-04-14 14:24 47.74425 8.42378 35197 ft 465 kts 171°
2026-04-14 14:25 47.68055 8.43888 35191 ft 461 kts 172°
2026-04-14 14:25 47.61708 8.44990 35193 ft 459 kts 175°
2026-04-14 14:26 47.55351 8.45788 35192 ft 458 kts 176°
2026-04-14 14:26 47.49005 8.46620 35193 ft 458 kts 175°
2026-04-14 14:27 47.42690 8.47541 35194 ft 458 kts 175°
2026-04-14 14:27 47.36351 8.48487 35193 ft 458 kts 175°
2026-04-14 14:28 47.30016 8.49420 35191 ft 458 kts 175°
2026-04-14 14:28 47.23672 8.50351 35189 ft 458 kts 175°
2026-04-14 14:29 47.17327 8.51261 35189 ft 458 kts 175°
2026-04-14 14:29 47.11945 8.51995 35178 ft 457 kts 180°
2026-04-14 14:30 47.05583 8.52276 35177 ft 458 kts 174°
2026-04-14 14:30 46.99268 8.53575 35177 ft 458 kts 172°
2026-04-14 14:31 46.92957 8.54864 35172 ft 458 kts 173°
2026-04-14 14:31 46.86617 8.55825 35161 ft 457 kts 175°
2026-04-14 14:32 46.80280 8.56658 35144 ft 458 kts 175°
2026-04-14 14:32 46.73934 8.57509 35143 ft 457 kts 175°
2026-04-14 14:33 46.67661 8.58404 35117 ft 455 kts 174°
2026-04-14 14:33 46.61359 8.59317 35093 ft 455 kts 174°
2026-04-14 14:34 46.51879 8.60666 35080 ft 456 kts 174°
2026-04-14 14:35 46.45575 8.61557 35053 ft 455 kts 174°
2026-04-14 14:35 46.39320 8.62449 35017 ft 456 kts 174°
2026-04-14 14:36 46.33311 8.63294 35005 ft 456 kts 174°
2026-04-14 14:36 46.27004 8.64178 34991 ft 455 kts 174°
2026-04-14 14:37 46.20691 8.65052 34982 ft 457 kts 174°
2026-04-14 14:37 46.14387 8.65928 34977 ft 456 kts 174°
2026-04-14 14:38 46.08164 8.67496 34976 ft 455 kts 162°
2026-04-14 14:38 46.02121 8.70261 34977 ft 456 kts 162°
2026-04-14 14:39 45.96054 8.72999 34983 ft 458 kts 162°
2026-04-14 14:39 45.89987 8.75709 34979 ft 455 kts 162°
2026-04-14 14:40 45.83942 8.78426 34981 ft 455 kts 162°
2026-04-14 14:40 45.77908 8.81140 34984 ft 454 kts 162°
2026-04-14 14:41 45.71862 8.83854 34991 ft 456 kts 162°
2026-04-14 14:41 45.65805 8.86555 35004 ft 457 kts 162°
2026-04-14 14:42 45.59782 8.89237 35001 ft 457 kts 162°
2026-04-14 14:42 45.53720 8.91924 35003 ft 456 kts 162°
2026-04-14 14:43 45.47661 8.94598 35006 ft 456 kts 162°
2026-04-14 14:43 45.41604 8.97266 35009 ft 456 kts 162°
2026-04-14 14:44 45.35561 8.99940 35001 ft 455 kts 162°
2026-04-14 14:44 45.29529 9.02601 35006 ft 456 kts 162°
2026-04-14 14:45 45.23480 9.05258 35004 ft 455 kts 162°
2026-04-14 14:45 45.17431 9.07904 35005 ft 454 kts 162°
2026-04-14 14:46 45.11391 9.10549 35007 ft 454 kts 162°
2026-04-14 14:46 45.05344 9.13191 35006 ft 455 kts 162°
2026-04-14 14:47 44.99284 9.15824 35002 ft 455 kts 162°
2026-04-14 14:47 44.93228 9.18447 35001 ft 454 kts 163°
2026-04-14 14:48 44.87236 9.21046 35002 ft 449 kts 163°
2026-04-14 14:48 44.81261 9.23636 34997 ft 448 kts 163°
2026-04-14 14:49 44.75299 9.26216 34994 ft 448 kts 163°
2026-04-14 14:49 44.69340 9.28783 34984 ft 448 kts 163°
2026-04-14 14:50 44.63457 9.31307 34982 ft 448 kts 163°
2026-04-14 14:50 44.57493 9.33856 34974 ft 448 kts 163°
2026-04-14 14:51 44.51532 9.36396 34973 ft 448 kts 163°
2026-04-14 14:51 44.45564 9.38940 34968 ft 448 kts 163°
2026-04-14 14:52 44.39654 9.41461 34968 ft 448 kts 163°
2026-04-14 14:52 44.33686 9.43999 34957 ft 448 kts 163°
2026-04-14 14:53 44.27725 9.46536 34947 ft 448 kts 163°
2026-04-14 14:53 44.24748 9.47800 35063 ft 446 kts 164°
2026-04-14 14:53 44.21789 9.49050 35317 ft 445 kts 164°
2026-04-14 14:53 44.18824 9.50295 35522 ft 445 kts 164°
2026-04-14 14:54 44.15861 9.51537 35712 ft 445 kts 163°
2026-04-14 14:54 44.12896 9.52786 35870 ft 445 kts 164°
2026-04-14 14:54 44.09932 9.54040 36035 ft 446 kts 163°
2026-04-14 14:54 44.06960 9.55295 36177 ft 447 kts 164°
2026-04-14 14:55 44.03986 9.56547 36335 ft 447 kts 164°
2026-04-14 14:55 44.01005 9.57799 36501 ft 448 kts 163°
2026-04-14 14:55 43.98022 9.59051 36671 ft 448 kts 163°
2026-04-14 14:55 43.95046 9.60299 36843 ft 448 kts 163°
2026-04-14 14:56 43.89055 9.62811 36930 ft 452 kts 163°
2026-04-14 14:56 43.83029 9.65333 36934 ft 453 kts 163°
2026-04-14 14:57 43.77005 9.67837 36928 ft 452 kts 163°
2026-04-14 14:57 43.70978 9.70338 36924 ft 452 kts 163°
2026-04-14 14:58 43.64957 9.72842 36923 ft 452 kts 163°
2026-04-14 14:58 43.58934 9.75337 36929 ft 452 kts 163°
2026-04-14 14:59 43.53016 9.78221 36938 ft 452 kts 156°
2026-04-14 14:59 43.47270 9.81758 36942 ft 452 kts 156°
2026-04-14 15:00 43.41528 9.85273 36944 ft 451 kts 156°
2026-04-14 15:00 43.35812 9.88762 36955 ft 448 kts 156°
2026-04-14 15:01 43.30123 9.92230 36950 ft 447 kts 156°
2026-04-14 15:01 43.24431 9.95682 36949 ft 446 kts 156°
2026-04-14 15:02 43.18759 9.99118 36952 ft 445 kts 156°
2026-04-14 15:02 43.13094 10.02553 36947 ft 445 kts 156°
2026-04-14 15:03 43.08390 10.05397 36943 ft 444 kts 156°
2026-04-14 15:03 43.02739 10.08803 36934 ft 444 kts 156°
2026-04-14 15:04 42.97090 10.12210 36930 ft 444 kts 156°
2026-04-14 15:04 42.91436 10.15606 36923 ft 444 kts 156°
2026-04-14 15:05 42.85768 10.19002 36924 ft 445 kts 156°
2026-04-14 15:05 42.80097 10.22394 36921 ft 445 kts 156°
2026-04-14 15:06 42.74435 10.25772 36931 ft 444 kts 156°
2026-04-14 15:06 42.68773 10.29141 36928 ft 444 kts 156°
2026-04-14 15:07 42.63107 10.32514 36925 ft 445 kts 156°
2026-04-14 15:07 42.57440 10.35882 36930 ft 445 kts 156°
2026-04-14 15:08 42.51772 10.39241 36923 ft 444 kts 156°
2026-04-14 15:08 42.46099 10.42601 36920 ft 445 kts 156°
2026-04-14 15:09 42.40426 10.45941 36916 ft 445 kts 156°
2026-04-14 15:09 42.34743 10.49271 36917 ft 445 kts 156°
2026-04-14 15:10 42.29066 10.52610 36920 ft 445 kts 156°
2026-04-14 15:10 42.23394 10.55949 36917 ft 445 kts 156°
2026-04-14 15:11 42.17724 10.59275 36915 ft 444 kts 156°
2026-04-14 15:11 42.12056 10.62580 36923 ft 444 kts 156°
2026-04-14 15:12 42.06393 10.65874 36929 ft 443 kts 156°
2026-04-14 15:12 42.00778 10.69137 36922 ft 443 kts 156°
2026-04-14 15:13 41.95090 10.72443 36920 ft 442 kts 156°
2026-04-14 15:13 41.89442 10.75727 36923 ft 442 kts 156°
2026-04-14 15:14 41.83834 10.78972 36924 ft 443 kts 156°
2026-04-14 15:14 41.78158 10.82240 36920 ft 443 kts 156°
2026-04-14 15:15 41.72495 10.85500 36927 ft 443 kts 156°
2026-04-14 15:15 41.66831 10.88761 36920 ft 443 kts 156°
2026-04-14 15:16 41.61167 10.92023 36917 ft 444 kts 157°
2026-04-14 15:16 41.55488 10.95277 36919 ft 444 kts 157°
2026-04-14 15:17 41.49814 10.98521 36916 ft 444 kts 157°
2026-04-14 15:17 41.44125 11.01754 36918 ft 444 kts 157°
2026-04-14 15:18 41.38446 11.04986 36915 ft 444 kts 157°
2026-04-14 15:18 41.32768 11.08229 36909 ft 444 kts 157°
2026-04-14 15:19 41.27080 11.11471 36909 ft 445 kts 157°
2026-04-14 15:19 41.21391 11.14690 36918 ft 445 kts 157°
2026-04-14 15:20 41.15692 11.17898 36908 ft 445 kts 157°
2026-04-14 15:20 41.09996 11.21105 36912 ft 445 kts 157°
2026-04-14 15:21 41.04304 11.24317 36904 ft 445 kts 157°
2026-04-14 15:21 40.98606 11.27525 36915 ft 445 kts 158°
2026-04-14 15:22 40.92898 11.30731 36897 ft 445 kts 158°
2026-04-14 15:22 40.87197 11.33925 36898 ft 445 kts 158°
2026-04-14 15:23 40.81511 11.37101 36908 ft 444 kts 158°
2026-04-14 15:23 40.75810 11.40276 36906 ft 444 kts 158°
2026-04-14 15:24 40.70131 11.43435 36902 ft 443 kts 158°
2026-04-14 15:24 40.64441 11.46607 36895 ft 443 kts 158°
2026-04-14 15:25 40.58794 11.49745 36894 ft 444 kts 158°
2026-04-14 15:25 40.53104 11.52886 36897 ft 444 kts 158°
2026-04-14 15:26 40.47410 11.56030 36900 ft 444 kts 158°
2026-04-14 15:26 40.41718 11.59175 36897 ft 444 kts 158°
2026-04-14 15:27 40.35992 11.62343 36892 ft 444 kts 158°
2026-04-14 15:27 40.30337 11.65458 36896 ft 444 kts 158°
2026-04-14 15:28 40.24643 11.68574 36896 ft 443 kts 158°
2026-04-14 15:28 40.18955 11.71682 36908 ft 443 kts 158°
2026-04-14 15:29 40.13277 11.74796 36907 ft 442 kts 158°
2026-04-14 15:29 40.07601 11.77894 36910 ft 442 kts 158°
2026-04-14 15:30 40.01939 11.80978 36905 ft 440 kts 158°
2026-04-14 15:30 39.96291 11.84055 36898 ft 440 kts 158°
2026-04-14 15:31 39.90637 11.87113 36897 ft 440 kts 159°
2026-04-14 15:31 39.85004 11.90238 36895 ft 440 kts 156°
2026-04-14 15:32 39.79541 11.93846 36898 ft 440 kts 153°
2026-04-14 15:32 39.74157 11.97647 36898 ft 440 kts 153°
2026-04-14 15:33 39.68740 12.01354 36896 ft 440 kts 154°
2026-04-14 15:33 39.63289 12.04957 36887 ft 440 kts 154°
2026-04-14 15:34 39.57834 12.08538 36897 ft 439 kts 154°
2026-04-14 15:34 39.52396 12.12138 36896 ft 439 kts 154°
2026-04-14 15:35 39.46966 12.15748 36890 ft 439 kts 154°
2026-04-14 15:35 39.41526 12.19348 36898 ft 439 kts 154°
2026-04-14 15:36 39.36084 12.22929 36892 ft 439 kts 154°
2026-04-14 15:36 39.30642 12.26510 36887 ft 440 kts 154°
2026-04-14 15:37 39.25185 12.30094 36887 ft 440 kts 154°
2026-04-14 15:37 39.19770 12.33652 36903 ft 440 kts 154°
2026-04-14 15:38 39.14311 12.37229 36887 ft 440 kts 154°
2026-04-14 15:38 39.08851 12.40797 36870 ft 440 kts 155°
2026-04-14 15:39 39.03388 12.44370 36873 ft 441 kts 155°
2026-04-14 15:39 38.97917 12.47943 36883 ft 441 kts 155°
2026-04-14 15:40 38.92433 12.51501 36891 ft 442 kts 155°
2026-04-14 15:40 38.86941 12.55062 36900 ft 443 kts 155°
2026-04-14 15:41 38.81448 12.58626 36907 ft 443 kts 155°
2026-04-14 15:41 38.75944 12.62188 36908 ft 443 kts 155°
2026-04-14 15:42 38.70445 12.65748 36905 ft 443 kts 155°
2026-04-14 15:42 38.64943 12.69290 36909 ft 442 kts 156°
2026-04-14 15:43 38.59446 12.72823 36919 ft 442 kts 156°
2026-04-14 15:43 38.53992 12.76324 36920 ft 441 kts 156°
2026-04-14 15:44 38.48518 12.79838 36915 ft 439 kts 156°
2026-04-14 15:44 38.43072 12.83320 36919 ft 437 kts 156°
2026-04-14 15:45 38.37645 12.86783 36923 ft 435 kts 156°
2026-04-14 15:45 38.32241 12.90231 36922 ft 434 kts 156°
2026-04-14 15:46 38.26849 12.93671 36916 ft 433 kts 156°
2026-04-14 15:46 38.21465 12.97105 36917 ft 432 kts 156°
2026-04-14 15:47 38.16996 12.99940 36914 ft 432 kts 156°
2026-04-14 15:47 38.11619 13.03343 36909 ft 431 kts 156°
2026-04-14 15:48 38.06243 13.06749 36909 ft 431 kts 156°
2026-04-14 15:48 38.00877 13.10151 36904 ft 431 kts 156°
2026-04-14 15:49 37.95510 13.13541 36882 ft 431 kts 156°
2026-04-14 15:49 37.90147 13.16910 36886 ft 429 kts 156°
2026-04-14 15:50 37.84793 13.20274 36885 ft 430 kts 156°
2026-04-14 15:50 37.79429 13.23634 36887 ft 430 kts 156°
2026-04-14 15:51 37.74057 13.26993 36890 ft 431 kts 156°
2026-04-14 15:51 37.68677 13.30363 36895 ft 431 kts 156°
2026-04-14 15:52 37.63306 13.33732 36892 ft 431 kts 156°
2026-04-14 15:52 37.57933 13.37087 36890 ft 431 kts 156°
2026-04-14 15:53 37.52549 13.40437 36890 ft 431 kts 156°
2026-04-14 15:53 37.47165 13.43786 36897 ft 432 kts 156°
2026-04-14 15:54 37.39116 13.48780 36896 ft 432 kts 156°
2026-04-14 15:55 37.33727 13.52117 36880 ft 432 kts 157°
2026-04-14 15:55 37.28344 13.55447 36896 ft 431 kts 157°
2026-04-14 15:56 37.22965 13.58767 36901 ft 430 kts 157°
2026-04-14 15:56 37.20278 13.60422 36738 ft 431 kts 157°
2026-04-14 15:56 37.17593 13.62074 36482 ft 429 kts 157°
2026-04-14 15:56 37.14916 13.63719 36225 ft 428 kts 157°
2026-04-14 15:57 37.12247 13.65355 35977 ft 426 kts 158°
2026-04-14 15:57 37.09556 13.66896 35727 ft 423 kts 160°
2026-04-14 15:57 37.06851 13.68321 35485 ft 421 kts 161°
2026-04-14 15:57 37.04138 13.69676 35243 ft 419 kts 162°
2026-04-14 15:58 37.01432 13.71004 35007 ft 417 kts 162°
2026-04-14 15:58 36.98736 13.72334 34768 ft 415 kts 162°
2026-04-14 15:58 36.96063 13.73676 34534 ft 414 kts 162°
2026-04-14 15:58 36.93400 13.75031 34301 ft 412 kts 161°
2026-04-14 15:59 36.90759 13.76390 34073 ft 410 kts 161°
2026-04-14 15:59 36.88127 13.77752 33266 ft 409 kts 162°
2026-04-14 15:59 36.85521 13.79101 32106 ft 402 kts 162°
2026-04-14 15:59 36.82969 13.80418 31030 ft 394 kts 162°
2026-04-14 16:00 36.80454 13.81712 30010 ft 387 kts 162°
2026-04-14 16:00 36.77987 13.82979 28870 ft 379 kts 162°
2026-04-14 16:00 36.75547 13.84228 27775 ft 380 kts 161°
2026-04-14 16:00 36.73078 13.85479 26717 ft 386 kts 161°
2026-04-14 16:01 36.70573 13.86749 25635 ft 391 kts 162°
2026-04-14 16:01 36.68035 13.88035 24618 ft 396 kts 162°
2026-04-14 16:01 36.65474 13.89338 23629 ft 400 kts 162°
2026-04-14 16:01 36.62888 13.90654 22497 ft 403 kts 162°
2026-04-14 16:02 36.60287 13.91979 21360 ft 406 kts 162°
2026-04-14 16:02 36.57660 13.93314 20275 ft 409 kts 161°
2026-04-14 16:02 36.55080 13.94625 19574 ft 403 kts 161°
2026-04-14 16:02 36.52495 13.95942 18836 ft 400 kts 161°
2026-04-14 16:03 36.49935 13.97245 18085 ft 397 kts 161°
2026-04-14 16:03 36.47385 13.98543 17272 ft 394 kts 160°
2026-04-14 16:03 36.44853 13.99828 16523 ft 391 kts 160°
2026-04-14 16:03 36.42342 14.01097 15812 ft 388 kts 160°
2026-04-14 16:04 36.39848 14.02354 15127 ft 385 kts 160°
2026-04-14 16:04 36.37376 14.03601 14481 ft 382 kts 160°
2026-04-14 16:04 36.34954 14.04824 14294 ft 368 kts 160°
2026-04-14 16:04 36.32639 14.05996 14171 ft 352 kts 160°
2026-04-14 16:05 36.30420 14.07116 14058 ft 337 kts 160°
2026-04-14 16:05 36.28289 14.08191 13917 ft 324 kts 160°
2026-04-14 16:05 36.26218 14.09235 13390 ft 323 kts 160°
2026-04-14 16:05 36.24100 14.10297 12465 ft 331 kts 159°
2026-04-14 16:06 36.21988 14.11359 11564 ft 325 kts 159°
2026-04-14 16:06 36.19911 14.12400 10687 ft 319 kts 159°
2026-04-14 16:06 36.17868 14.13426 9845 ft 315 kts 158°
2026-04-14 16:06 36.15855 14.14437 8940 ft 308 kts 158°
2026-04-14 16:07 36.13887 14.15426 8041 ft 303 kts 158°
2026-04-14 16:07 36.11943 14.16400 7163 ft 300 kts 157°
2026-04-14 16:07 36.10020 14.17368 6316 ft 297 kts 156°
2026-04-14 16:07 36.08166 14.18450 5439 ft 292 kts 145°
2026-04-14 16:08 36.06702 14.20136 4571 ft 286 kts 122°
2026-04-14 16:08 36.05949 14.22375 3678 ft 282 kts 108°
2026-04-14 16:08 36.05004 14.24427 3170 ft 268 kts 138°
2026-04-14 16:08 36.03552 14.25681 3044 ft 241 kts 142°
2026-04-14 16:09 36.02388 14.26988 2992 ft 218 kts 133°
2026-04-14 16:09 36.01373 14.28290 3017 ft 197 kts 133°
2026-04-14 16:09 36.00486 14.29407 2995 ft 175 kts 133°
2026-04-14 16:09 35.99646 14.30461 3021 ft 168 kts 134°
2026-04-14 16:10 35.98846 14.31462 3006 ft 165 kts 133°
2026-04-14 16:10 35.98044 14.32461 3006 ft 161 kts 134°
2026-04-14 16:10 35.97256 14.33431 2961 ft 160 kts 134°
2026-04-14 16:10 35.96468 14.34414 2963 ft 163 kts 134°
2026-04-14 16:11 35.95678 14.35415 2931 ft 160 kts 133°
2026-04-14 16:11 35.94910 14.36381 2737 ft 155 kts 134°
2026-04-14 16:11 35.94155 14.37298 2543 ft 149 kts 134°
2026-04-14 16:11 35.93428 14.38214 2335 ft 149 kts 132°
2026-04-14 16:12 35.92713 14.39118 2191 ft 147 kts 133°
2026-04-14 16:12 35.91988 14.40018 2010 ft 149 kts 133°
2026-04-14 16:12 35.91239 14.40903 1814 ft 149 kts 135°
2026-04-14 16:12 35.90494 14.41776 1604 ft 148 kts 133°
2026-04-14 16:13 35.89767 14.42716 1427 ft 153 kts 132°
2026-04-14 16:13 35.89035 14.43663 1209 ft 152 kts 133°
2026-04-14 16:13 35.88303 14.44585 992 ft 149 kts 133°
2026-04-14 16:13 35.87573 14.45485 830 ft 150 kts 132°
2026-04-14 16:14 35.86835 14.46393 670 ft 148 kts 133°
2026-04-14 16:14 35.86111 14.47285 450 ft 145 kts 132°
2026-04-14 16:14 35.85420 14.48166 286 ft 138 kts 137°
2026-04-14 16:14 35.84831 14.48885 258 ft 87 kts 135°
2026-04-14 16:15 35.84525 14.49283 259 ft 46 kts 127°
2026-04-14 16:15 35.84461 14.49444 259 ft 13 kts 114°
2026-04-14 16:15 35.84453 14.49544 259 ft 11 kts 62°
2026-04-14 16:15 35.84502 14.49572 259 ft 3 kts 354°
2026-04-14 16:16 35.84517 14.49564 259 ft 2 kts 333°
2026-04-14 16:16 35.84532 14.49552 259 ft 4 kts 324°
2026-04-14 16:16 35.84556 14.49535 259 ft 3 kts 338°
2026-04-14 16:16 35.84575 14.49534 259 ft 3 kts
2026-04-14 16:17 35.84588 14.49541 259 ft 2 kts 37°
2026-04-14 16:17 35.84598 14.49551 259 ft 2 kts 38°
2026-04-14 16:17 35.84614 14.49567 259 ft 5 kts 39°
2026-04-14 16:17 35.84666 14.49573 259 ft 8 kts 347°
2026-04-14 16:18 35.84710 14.49543 259 ft 7 kts 321°
2026-04-14 16:18 35.84739 14.49507 259 ft 5 kts 312°
2026-04-14 16:18 35.84766 14.49472 259 ft 8 kts 316°
2026-04-14 16:18 35.84812 14.49419 259 ft 9 kts 316°
2026-04-14 16:19 35.84844 14.49366 259 ft 7 kts 272°
2026-04-14 16:19 35.84812 14.49323 259 ft 8 kts 223°
2026-04-14 16:19 35.84799 14.49307 259 ft 0 kts 224°